User: anonymous   Login
Location: Unspecified
(0.0000°N, 0.0000°E)
Time: 17:30:31
(UTC+00:00)
Language:

COSMOS 2481 - Orbit

View from above orbital plane
View from above orbital plane
View from above satellite
View from above satellite

Ground track
Ground track

The orbit data is extracted from the following two-line orbital elements,

1 38733U 12041A   18049.76895101 -.00000006  00000-0 -11121-3 0  9998
2 38733  82.4767 170.6722 0017866 213.8548 146.1393 12.42373678252283
Epoch (UTC): 18 February 2018 18:27:17
Eccentricity: 0.0017866
inclination: 82.4767°
perigee height: 1482 km
apogee height: 1510 km
right ascension of ascending node: 170.6722°
argument of perigee: 213.8548°
revolutions per day: 12.42373678
mean anomaly at epoch: 146.1393°
orbit number at epoch: 25228

The dashed part of the orbit path shows where the satellite is in the earth's shadow,  

DLR